TimeEST,TemperatureF,Dew PointF,Humidity,Sea Level PressureIn,VisibilityMPH,Wind Direction,Wind SpeedMPH,Gust SpeedMPH,PrecipitationIn,Events,Conditions,WindDirDegrees,DateUTC
12:53 AM,75.9,70.0,82,30.02,9.0,SSE,4.6,-,N/A,,Mostly Cloudy,150,2013-02-13 05:53:00
1:53 AM,75.9,70.0,82,30.01,9.0,SE,3.5,-,N/A,,Clear,130,2013-02-13 06:53:00
2:53 AM,75.0,70.0,84,29.99,9.0,SE,4.6,-,N/A,,Scattered Clouds,130,2013-02-13 07:53:00
3:06 AM,75.2,71.6,89,29.98,9.0,SE,4.6,-,N/A,,Mostly Cloudy,130,2013-02-13 08:06:00
3:21 AM,75.2,71.6,89,29.98,9.0,SE,4.6,-,N/A,,Scattered Clouds,130,2013-02-13 08:21:00
3:53 AM,75.0,71.1,87,29.97,8.0,SE,3.5,-,N/A,,Clear,140,2013-02-13 08:53:00
4:53 AM,75.9,71.1,85,29.97,9.0,SSE,5.8,-,N/A,,Clear,150,2013-02-13 09:53:00
5:53 AM,75.0,70.0,84,29.98,9.0,SSE,5.8,-,N/A,,Clear,160,2013-02-13 10:53:00
6:53 AM,75.9,70.0,82,29.99,9.0,SSE,5.8,-,N/A,,Clear,160,2013-02-13 11:53:00
7:53 AM,75.9,70.0,82,30.00,9.0,SSE,5.8,-,N/A,,Clear,160,2013-02-13 12:53:00
8:53 AM,75.9,71.1,85,30.02,9.0,South,5.8,-,N/A,,Clear,170,2013-02-13 13:53:00
9:53 AM,81.0,70.0,69,30.03,8.0,Variable,4.6,-,N/A,,Clear,0,2013-02-13 14:53:00
10:53 AM,82.0,70.0,67,30.03,8.0,South,6.9,-,N/A,,Clear,180,2013-02-13 15:53:00
11:53 AM,84.0,70.0,63,30.02,8.0,South,5.8,-,N/A,,Scattered Clouds,190,2013-02-13 16:53:00
12:06 PM,82.4,71.6,70,30.02,8.0,Variable,4.6,-,N/A,,Mostly Cloudy,0,2013-02-13 17:06:00
12:44 PM,84.2,69.8,62,30.00,9.0,SSW,6.9,-,N/A,,Scattered Clouds,210,2013-02-13 17:44:00
12:53 PM,84.9,70.0,61,30.00,9.0,SSW,8.1,-,N/A,,Scattered Clouds,200,2013-02-13 17:53:00
1:53 PM,84.0,70.0,63,29.98,9.0,South,6.9,-,N/A,,Clear,190,2013-02-13 18:53:00
2:53 PM,82.0,70.0,67,29.96,10.0,South,6.9,-,N/A,,Partly Cloudy,190,2013-02-13 19:53:00
3:53 PM,81.0,70.0,69,29.95,10.0,South,8.1,-,N/A,,Clear,190,2013-02-13 20:53:00
4:53 PM,80.1,68.0,67,29.94,10.0,South,5.8,-,N/A,,Clear,180,2013-02-13 21:53:00
5:53 PM,78.1,68.0,71,29.95,10.0,Calm,Calm,-,N/A,,Clear,0,2013-02-13 22:53:00
6:53 PM,75.9,69.1,79,29.95,10.0,Calm,Calm,-,N/A,,Clear,0,2013-02-13 23:53:00
7:53 PM,75.9,69.1,79,29.96,9.0,Calm,Calm,-,N/A,,Clear,0,2013-02-14 00:53:00
8:53 PM,75.9,69.1,79,29.98,10.0,Calm,Calm,-,N/A,,Clear,0,2013-02-14 01:53:00
9:53 PM,75.9,70.0,82,29.99,10.0,SSE,5.8,-,N/A,,Clear,160,2013-02-14 02:53:00
10:53 PM,75.9,70.0,82,30.00,10.0,South,5.8,-,N/A,,Clear,170,2013-02-14 03:53:00
11:53 PM,77.0,70.0,79,29.99,10.0,SSE,5.8,-,N/A,,Mostly Cloudy,160,2013-02-14 04:53:00